This is the latest recevied weather packets stored in our database for station/object M0JUI-1. If no packets are shown the sender has not sent any weather packets the latest 10 day(s).
| Time | Temp. | Humidity | Pressure | Rain* | Wind** | Luminosity | Snow |
|---|---|---|---|---|---|---|---|
| 1788498306 | 15° C | 25% | 1008.1 hPa | 1.78 mm | - | 0 W/m² | - |
| 1788497985 | 15° C | 25% | 1008.2 hPa | 1.78 mm | - | 0 W/m² | - |
| 1788497685 | 15° C | 25% | 1008.2 hPa | 1.78 mm | - | 0 W/m² | - |
| 1788497385 | 15° C | 25% | 1008.2 hPa | 1.52 mm | - | 0 W/m² | - |
| 1788497074 | 15° C | 25% | 1008.1 hPa | 1.52 mm | - | 0 W/m² | - |
| 1788496773 | 15° C | 25% | 1008.3 hPa | 1.78 mm | - | 0 W/m² | - |
| 1788496474 | 15° C | 25% | 1008.2 hPa | 1.52 mm | - | 0 W/m² | - |
| 1788496161 | 15° C | 24% | 1008.1 hPa | 1.27 mm | - | 0 W/m² | - |
| 1788495862 | 15° C | 24% | 1008 hPa | 1.27 mm | - | 0 W/m² | - |
| 1788495561 | 15° C | 24% | 1008.1 hPa | 1.27 mm | - | 0 W/m² | - |
| 1788495250 | 15° C | 24% | 1007.8 hPa | 1.27 mm | - | 0 W/m² | - |
| 1788494950 | 15° C | 24% | 1008 hPa | 1.02 mm | - | 0 W/m² | - |
| 1788494649 | 15° C | 24% | 1008.1 hPa | 1.27 mm | - | 0 W/m² | - |
| 1788494349 | 15° C | 24% | 1007.9 hPa | 1.27 mm | - | 0 W/m² | - |
| 1788494049 | 15° C | 24% | 1008.1 hPa | 1.27 mm | - | 0 W/m² | - |
| 1788493749 | 15° C | 24% | 1008.3 hPa | 1.52 mm | - | 0 W/m² | - |
| 1788493446 | 15° C | 23% | 1008.1 hPa | 1.27 mm | - | 0 W/m² | - |
| 1788493150 | 15° C | 23% | 1008.3 hPa | 1.27 mm | - | 0 W/m² | - |
| 1788492849 | 14.44° C | 23% | 1008.5 hPa | 1.52 mm | - | 0 W/m² | - |
| 1788492549 | 14.44° C | 23% | 1008.2 hPa | 2.29 mm | - | 0 W/m² | - |
| 1788492249 | 14.44° C | 23% | 1008 hPa | 2.29 mm | - | 0 W/m² | - |
| 1788491949 | 14.44° C | 23% | 1007.9 hPa | 2.79 mm | - | 0 W/m² | - |
| 1788491649 | 14.44° C | 23% | 1007.7 hPa | 3.3 mm | - | 0 W/m² | - |
| 1788491349 | 14.44° C | 23% | 1008 hPa | 3.81 mm | - | 0 W/m² | - |
| 1788491049 | 14.44° C | 23% | 1007.8 hPa | 4.06 mm | - | 0 W/m² | - |
* Rain latest hour (hover to see other rain measurements)
** Current wind speed in m/s (hover to see current wind gust speed)